Location: Unspecified
(0.0000°N, 0.0000°E)
Time: 11:07:34
(UTC+00:00)

Envisat - Pass Details

Date: 19 January 2019
Orbit: 764 x 766 km, 98.2° (Epoch: 16 January)

Event Time Altitude Azimuth Distance (km) Brightness Sun altitude
Rises 20:05:30 0° 196° (SSW) 3,230 6.8 -26.8°
Reaches altitude 10° 20:08:25 10° 213° (SSW) 2,301 6.2 -27.4°
Maximum altitude 20:11:56 19° 257° (WSW) 1,751 5.6 -28.2°
Drops below altitude 10° 20:15:28 10° 302° (WNW) 2,294 5.8 -29.1°
Sets 20:18:23 0° 320° (NW) 3,216 6.4 -29.7°
